Location: Saint-Denis
(20.8800°S, 55.4481°E)
Time: 07:04:38
(UTC+04:00)

Tiangong - Pass Details

Date: 26 January 2026
Orbit: 386 x 391 km, 41.5° (Epoch: 15 February)

Event Time Altitude Azimuth Distance (km) Brightness Sun altitude
Rises 20:50:19 0° 229° (SW) 2,277 3.2 -23.1°
Reaches altitude 10° 20:52:25 10° 226° (SW) 1,418 1.8 -23.5°
Enters shadow 20:54:21 33° 215° (SW) 678 -0.4 -23.9°
